EHI
0 0 0 0 0 0 0 0 0 0 0 0 0 0 0 0 0 0 0 0 0 0 0 0 0 0 0 0 0 0 0 0 0 0 0 0 0 0 0 0 0 0 0 0
0 0 0 0 0 0 0 0 0 0 0 0 0 0 0 0 0 0 0 0 0 0 0 0 0 0 0 0 0 0 0 0 0 0 0 0 0 0 0 0 0 0 0 0
0 0 0 0 0 0 0 0 0 0 0 0 0 0 0 0 0 0 0 0 0 0 0 0 0 0 0 0 0 0 0 0 0 0 0 0 0 0 0 0 0 0 0 0
0 0 0 0 0 0 0 0 0 0 0 0 0 0 0 0 0 0 0 0 0 0 0 0 0 0 0 0 0 0 0 0 0 0 0 0 0 0 0 0 0 0 0 0
0 0 0 0 0 0 0 0 0 0 0 0 0 0 0 0 0 0 0 0 0 0 0 0 0 0 0 0 0 0 0 0 0 0 0 0 0 0 0 0 0 0 0 0
0 0 0 0 0 0 0 0 0 0 0 0 0 0 0 0 0 0 0 0 0 0 0 0 0 0 0 0 0 0 0 0 0 0 0 0 0 0 0 0 0 0 0 0
0 0 0 0 0 0 0 0 0 0 0 0 0 0 0 0 0 0 0 0 0 0 0 0 0 0 0 0 0 0 0 0 0 0 0 0 0 0 0 0 0 0 0 0
0 0 0 0 0 0 0 0 0 0 0 0 0 0 0 0 0 0 0 0 0 0 0 0 0 0 0 0 0 0 0 0 0 0 0 0 0 0 0 0 0 0 0 0
0 0 0 0 0 0 0 0 0 0 0 0 0 0 0 0 0 0 0 0 0 0 0 0 0 0 0 0 0 0 0 0 0 0 0 0 0 0 0 0 0 0 0 0
0 0 0 0 0 0 0 0 0 0 0 0 0 0 0 0 0 0 0 0 0 0 0 0 0 0 0 0 0 0 0 0 0 0 0 0 0 0 0 0 0 0 0 0
0 0 0 0 0 0 0 0 0 0 0 0 0 0 0 0 0 0 0 0 0 0 0 0 0 0 0 0 0 0 0 0 0 0 0 0 0 0 0 0 0 0 0 0
0 0 0 0 0 0 0 0 0 0 0 0 0 0 0 0 0 0 0 0 0 0 0 0 0 0 0 0 0 0 0 0 0 0 0 0 0 0 0 0 0 0 0 0
0 0 0 0 0 0 0 0 0 0 0 0 0 0 0 0 0 0 0 0 0 0 0 0 0 0 0 0 0 0 0 0 0 0 0 0 0 0 0 0 0 0 0 0
0 0 0 0 0 0 0 0 0 0 0 0 0 0 0 0 0 0 0 0 0 0 0 0 0 0 0 0 0 0 0 0 0 0 0 0 0 0 0 0 0 0 0 0
0 0 0 0 0 0 0 0 0 0 0 0 0 0 0 0 0 0 0 0 0 0 0 0 0 0 0 0 0 0 0 0 0 0 0 0 0 0 0 0 0 0 0 0
0 0 0 0 0 0 0 0 0 0 0 0 0 0 0 0 0 0 0 0 0 0 0 0 0 0 0 0 0 0 0 0 0 0 0 0 0 0 0 0 0 0 0 0
0 0 0 0 0 0 0 0 0 0 0 0 0 0 0 0 0 0 0 0 0 0 0 0 0 0 0 0 0 0 0 0 0 0 0 0 0 0 0 0 0 0 0 0
0 0 0 0 0 0 0 0 0 0 0 0 0 0 0 0 0 0 0 0 0 0 0 0 0 0 0 0 0 0 0 0 0 0 0 0 0 0 0 0 0 0 0 0
0 0 0 0 0 0 0 0 0 0 0 0 0 0 0 0 0 0 0 0 0 0 0 0 0 0 0 0 0 0 0 0 0 0 0 0 0 0 0 0 0 0 0 0
0 0 0 0 0 0 0 0 0 0 0 0 0 0 0 0 0 0 0 0 0 0 0 0 0 0 0 0 0 0 0 0 0 0 0 0 0 0 0 0 0 0 0 0
0 0 0 0 0 0 0 0 0 0 0 0 0 0 0 0 0 0 0 0 0 0 0 0 0 0 0 0 0 0 0 0 0 0 0 0 0 0 0 0 0 0 0 0
0 0 0 0 0 0 0 0 0 0 0 0 0 0 0 0 0 0 0 0 0 0 0 0 0 0 0 0 0 0 0 0 0 0 0 0 0 0 0 0 0 0 0 0
0 0 0 0 0 0 0 0 0 0 0 0 0 0 0 0 0 0 0 0 0 0 0 0 0 0 0 0 0 0 0 0 0 0 0 0 0 0 0 0 0 0 0 0
0 0 0 0 0 0 0 0 0 0 0 0 0 0 0 0 0 0 0 0 0 0 0 0 0 0 0 0 0 0 0 0 0 0 0 0 0 0 0 0 0 0 0 0
0 0 0 0 0 0 0 0 0 0 0 0 0 0 0 0 0 0 0 0 0 0 0 0 0 0 0 0 0 0 0 0 0 0 0 0 0 0 0 0 0 0 0 0
0 0 0 0 0 0 0 0 0 0 0 0 0 0 0 0 0 0 0 0 0 0 0 0 0 0 0 0 0 0 0 0 0 0 0 0 0 0 0 0 0 0 0 0
0 0 0 0 0 0 0 0 0 0 0 0 0 0 0 0 0 0 0 0 0 0 0 0 0 0 0 0 0 0 0 0 0 0 0 0 0 0 0 0 0 0 0 0
Wind_Speed
5 5 3 4 5 6 6 7 8 8 8 9 8 7 5 4 4 4 4 4 5 5 5 4 5 5 5 5 5 4 4 5 6 6 6 6 7 7 7 7 8 7 8 9
3 2 3 4 5 4 4 4 5 3 7 6 3 3 3 5 6 6 6 6 6 6 5 6 6 5 5 5 5 4 5 6 7 6 6 7 7 7 7 8 8 8 9 9
3 4 3 4 4 4 4 4 7 7 8 3 4 6 7 7 7 8 8 7 7 7 6 7 6 6 6 6 5 5 6 7 7 7 7 8 8 7 8 8 8 8 9 9
2 2 3 9 4 4 3 4 5 5 4 6 6 5 4 6 9 9 8 8 7 6 6 6 5 5 5 5 5 5 6 7 7 7 8 8 7 8 8 7 8 8 9 10
4 3 5 8 3 5 5 5 5 6 5 3 3 3 3 7 8 9 9 8 7 7 6 5 5 5 4 5 5 6 7 7 7 7 8 8 8 9 8 7 8 8 8 10
4 4 6 9 3 4 4 5 6 7 8 6 7 3 8 8 8 9 8 6 6 5 4 5 5 3 4 5 5 7 7 7 7 7 8 8 9 9 8 7 9 9 9 9
4 4 8 7 2 6 3 10 6 9 9 10 10 10 6 4 7 8 7 7 5 5 4 6 4 3 5 6 7 8 7 7 7 7 7 8 8 7 8 8 8 8 10 9
4 3 8 3 7 9 11 4 5 9 9 11 12 7 4 5 7 7 6 6 5 5 6 5 4 4 6 7 8 6 6 7 8 8 7 7 7 8 7 7 8 8 8 9
8 8 6 4 7 6 3 4 5 8 9 11 9 8 7 7 7 7 7 6 5 6 6 5 5 6 7 8 6 5 6 7 7 8 7 7 7 8 7 6 6 7 6 7
3 7 6 5 5 4 5 6 6 8 9 10 10 9 8 7 7 7 6 6 5 5 6 6 5 6 7 7 5 5 6 7 7 7 8 7 6 6 6 6 6 6 6 7
4 7 7 6 4 4 4 4 3 4 6 9 10 8 8 8 8 8 7 5 5 6 7 8 6 6 6 6 4 5 6 7 7 7 7 7 7 6 7 7 7 8 7 6
6 6 3 6 7 4 3 4 5 5 5 5 8 9 8 8 7 7 6 5 5 6 7 7 6 6 6 5 4 5 6 6 6 6 6 6 7 8 8 10 11 12 13 11
6 4 3 6 6 6 4 5 4 5 6 6 6 6 6 6 5 4 4 5 7 7 7 6 6 7 6 5 4 5 6 6 6 6 6 7 6 7 9 9 8 9 10 10
5 3 3 5 6 7 5 4 3 2 2 2 1 2 3 3 3 5 7 7 7 6 6 6 6 8 7 4 4 5 6 7 7 6 6 6 7 7 7 7 8 7 6 8
9 5 2 4 7 10 9 9 9 8 7 5 2 1 2 3 5 6 6 5 4 5 6 6 7 8 6 4 5 6 5 5 5 6 6 6 6 6 6 7 7 7 6 6
6 8 9 11 12 11 11 11 9 8 6 5 3 2 3 4 4 5 5 5 5 7 8 7 8 7 5 4 5 5 5 8 8 6 6 6 6 6 6 6 6 6 6 5
11 12 11 11 11 10 9 7 6 6 6 6 5 4 2 2 3 5 6 6 7 8 7 7 8 6 4 5 5 4 5 6 8 6 5 6 6 6 6 6 6 6 6 6
6 5 5 6 6 8 9 9 8 8 6 6 5 4 3 3 5 7 6 5 5 7 8 8 6 5 5 5 4 4 4 4 5 5 5 6 6 5 5 5 6 6 6 5
7 7 7 8 7 7 7 8 8 7 6 6 6 5 5 5 6 6 5 5 7 9 8 6 7 6 5 5 5 3 4 5 5 5 5 6 6 5 5 5 5 5 5 5
7 7 7 7 8 7 7 7 7 7 7 7 6 7 7 7 7 7 6 7 8 7 5 4 5 5 5 4 4 3 4 4 5 5 5 5 5 5 5 5 5 5 5 4
6 7 7 7 7 6 6 6 6 7 7 7 6 7 8 9 8 6 6 8 8 6 5 6 5 4 3 3 3 3 3 4 4 4 5 5 5 5 5 5 5 5 4 4
5 5 6 6 6 6 6 5 5 6 7 7 7 7 8 9 9 8 7 8 8 6 5 4 4 5 4 3 2 3 3 3 3 3 4 4 4 5 5 5 4 5 4 4
5 5 5 6 5 6 6 5 5 5 6 6 7 8 8 8 7 6 9 7 6 7 4 4 4 5 4 2 2 2 2 3 3 3 4 4 4 4 4 5 4 4 4 5
5 6 6 6 4 4 5 6 6 5 6 6 7 7 7 7 7 6 6 9 9 7 4 3 4 4 3 1 1 1 1 2 2 3 3 3 3 3 3 4 4 4 4 5
6 6 6 5 5 4 5 6 6 6 6 6 8 8 6 5 6 8 8 7 7 5 2 2 3 3 2 1 1 1 1 2 2 3 3 3 3 4 4 4 4 4 4 4
6 5 6 6 5 5 4 4 4 5 5 6 7 7 7 6 7 7 6 5 5 3 1 0 1 2 1 1 1 1 1 2 2 3 3 3 3 4 4 4 5 4 4 4
6 5 4 5 5 5 4 4 5 6 5 5 7 7 7 7 7 7 6 4 2 1 1 1 1 1 1 2 2 1 2 2 2 3 3 3 3 3 4 5 4 4 4 4
Wind_Direction
234 245 241 249 244 185 190 189 187 225 225 241 223 213 208 187 169 175 201 218 228 236 249 261 268 270 266 270 276 280 281 278 274 276 278 279 280 279 278 276 275 272 275 274
286 283 273 263 257 209 205 190 208 236 253 246 208 159 175 180 180 200 221 231 238 243 248 253 255 258 261 266 272 276 275 275 278 281 283 282 282 281 280 279 278 276 274 273
259 308 4 286 243 203 210 200 178 205 236 188 176 196 203 197 197 210 223 231 236 239 239 244 246 245 250 258 273 279 276 279 282 283 284 283 285 287 283 281 279 279 276 273
165 57 248 250 256 202 200 230 208 223 231 198 201 208 210 196 197 215 225 231 236 236 240 244 245 248 254 267 275 277 280 283 283 283 284 286 286 284 282 280 279 279 279 277
132 181 275 292 242 167 168 255 217 208 213 173 103 63 298 224 206 213 220 222 226 227 228 239 249 252 260 274 278 280 279 280 281 282 284 287 286 285 283 282 283 280 277 277
135 160 228 250 243 153 108 282 231 189 187 161 126 157 253 230 206 219 226 223 224 227 225 242 250 238 245 263 273 273 273 276 281 281 280 282 282 283 283 281 281 284 282 278
160 201 254 252 170 126 162 244 218 187 184 169 183 204 227 206 198 208 216 221 218 215 225 238 241 223 245 261 264 264 270 279 284 282 280 278 279 280 284 286 286 284 284 282
147 183 259 230 144 179 215 230 190 189 186 189 212 224 235 217 209 208 215 220 210 211 233 242 232 221 246 257 260 269 274 281 285 286 285 287 283 288 287 285 288 288 287 289
187 213 242 222 214 231 196 207 206 196 200 199 209 221 221 220 216 214 214 217 211 212 234 246 232 216 237 254 265 275 282 286 289 293 289 285 283 288 293 287 283 285 285 287
255 274 269 267 259 256 217 220 220 203 197 188 202 213 211 213 212 215 216 215 212 211 230 247 242 231 235 254 265 270 279 287 292 296 298 297 288 280 281 283 283 284 283 283
270 282 307 314 282 263 252 248 246 221 198 197 201 208 203 205 209 211 212 212 204 211 228 243 248 247 250 252 255 267 278 286 292 290 292 297 294 282 275 269 260 266 276 273
243 255 233 276 301 309 262 247 230 212 217 211 201 209 201 205 207 205 210 208 213 224 234 245 248 254 259 255 244 257 279 288 289 293 296 295 299 303 281 263 270 260 254 254
256 283 252 279 322 334 295 278 258 217 216 218 212 201 193 202 204 203 213 213 220 227 233 241 248 257 260 254 242 247 264 279 288 289 292 295 298 302 307 307 290 276 268 263
315 322 359 350 334 342 348 347 5 354 319 295 220 180 179 190 189 204 220 223 225 232 240 243 252 259 260 250 245 255 265 276 280 282 286 289 292 293 292 297 305 306 293 277
11 37 41 358 13 19 21 28 32 19 7 4 20 161 183 195 216 228 234 229 221 235 245 244 250 259 258 240 246 258 269 277 281 283 284 285 288 290 290 290 289 293 300 301
8 34 33 31 24 19 23 27 22 5 1 354 341 295 247 225 230 240 236 216 213 235 242 242 247 254 250 239 250 262 267 280 288 288 291 294 294 294 295 295 295 296 297 298
40 28 17 17 14 12 11 6 0 354 355 349 331 315 295 273 268 262 253 235 231 243 246 240 247 252 243 239 245 259 271 286 296 296 290 291 293 295 295 295 296 298 295 289
53 43 32 21 12 8 4 2 359 356 349 339 339 340 322 281 264 265 266 260 257 262 255 243 242 244 243 242 241 250 266 279 287 289 293 295 295 293 292 295 301 303 304 305
30 26 19 16 13 11 4 355 349 345 342 347 346 328 304 287 279 280 277 265 258 263 265 248 236 231 241 244 241 243 261 277 286 290 294 297 299 298 299 302 307 310 310 311
18 13 10 7 7 4 353 346 344 345 343 343 341 333 321 309 300 290 278 264 255 251 255 243 224 223 234 244 244 244 259 272 284 294 301 302 303 306 307 311 315 314 316 318
358 356 355 351 345 343 342 339 340 335 330 334 332 319 309 304 301 292 282 280 275 256 246 235 221 220 220 229 245 249 261 272 283 292 299 302 306 309 313 318 321 319 322 327
337 335 333 331 331 328 325 325 326 325 328 330 330 326 323 318 314 305 282 267 277 270 249 229 220 217 214 218 230 248 264 276 286 294 301 304 309 312 314 319 323 325 327 331
309 305 308 310 306 301 308 315 321 323 322 320 318 317 312 304 302 299 301 296 294 277 257 235 218 212 207 203 227 251 272 288 298 304 306 307 311 315 317 319 326 332 332 334
302 300 299 296 295 303 309 306 311 309 306 302 300 301 301 305 307 295 286 297 297 281 264 237 213 201 180 183 218 252 282 300 308 312 316 319 326 331 336 335 335 338 338 341
291 291 293 296 294 284 280 289 301 303 308 307 307 306 302 285 283 298 304 305 302 288 275 216 187 171 156 157 203 275 315 322 324 324 331 335 341 343 351 352 346 345 349 352
283 282 276 268 262 264 269 274 278 284 292 299 303 304 306 307 304 304 306 306 304 292 278 157 145 142 133 128 106 36 354 342 342 346 348 344 343 344 351 354 353 357 359 360
282 277 277 282 279 265 260 260 266 274 276 281 290 297 303 308 310 311 312 312 314 315 4 79 104 106 99 90 75 44 16 1 355 352 352 351 347 345 349 354 357 0 4 6